Wind_Speed
80 80 80 80 80 79 78 79 81 81 81 81 80 80 79 78 78 77 77 78 78 78 79 79 79 78 78 77 77 77 77 76 76 76 76 75 75 75 74 74 74 74
80 80 81 82 81 81 80 80 80 81 82 82 81 81 81 81 80 80 80 80 80 80 80 81 81 81 80 80 79 79 79 78 78 78 78 78 77 77 77 77 76 76
78 80 82 83 83 84 84 84 83 83 83 83 82 82 82 81 81 82 82 82 83 83 82 83 83 83 82 82 81 81 80 80 79 80 80 80 80 80 80 80 79 79
74 77 80 82 83 84 84 85 85 85 85 85 85 85 84 84 84 84 84 85 85 86 86 85 85 85 84 83 83 82 81 80 80 80 81 81 81 81 81 82 81 81
70 72 75 78 81 83 84 84 84 85 85 85 85 85 85 85 86 86 86 86 87 88 89 88 88 87 87 86 85 84 83 82 81 81 81 82 82 83 83 84 83 83
68 69 71 73 76 80 82 83 84 84 84 84 83 82 82 82 82 83 84 86 87 89 90 90 90 89 89 88 87 86 85 85 84 84 84 84 85 85 86 86 86 86
67 67 68 69 71 74 78 81 84 85 85 85 84 84 82 81 80 80 81 82 84 86 88 89 89 89 89 89 88 88 87 87 87 87 87 88 88 88 88 88 88 87
68 67 67 68 68 70 73 76 80 83 86 87 87 87 86 85 83 82 81 81 81 82 84 85 86 87 87 88 88 88 88 88 88 88 89 90 90 90 90 89 89 88
69 69 69 69 69 69 69 71 74 77 81 84 86 87 87 87 87 87 86 85 84 83 83 83 84 85 86 86 87 87 88 88 89 89 89 89 90 90 90 90 89 89
71 70 70 71 71 70 70 70 70 72 74 76 79 82 83 83 84 85 86 87 87 87 86 85 85 85 85 86 86 86 86 87 88 89 89 89 89 89 90 90 89 89
75 74 73 73 73 73 72 72 72 72 72 72 74 76 77 79 79 80 80 80 81 82 83 84 84 84 85 85 86 86 86 86 86 87 88 88 89 90 90 91 90 90
79 77 76 76 75 75 74 74 74 73 73 73 73 73 74 75 76 77 77 76 76 75 76 77 78 79 80 81 82 83 84 84 85 85 85 86 87 88 89 90 90 90
81 80 79 78 77 77 76 75 75 75 74 74 74 74 74 74 74 75 75 76 75 75 74 73 73 73 74 75 75 77 78 80 82 83 84 84 85 86 87 88 89 89
80 80 80 79 78 78 77 77 76 76 75 75 75 75 75 75 74 74 74 74 74 74 74 73 73 72 72 72 72 73 74 75 76 78 81 82 83 84 85 85 86 87
79 80 80 80 80 79 78 78 77 76 76 76 75 75 75 75 74 74 73 72 73 72 73 73 72 72 72 72 72 72 73 73 74 75 76 78 80 82 84 85 85 86
81 81 81 81 81 81 80 80 79 78 77 76 76 76 76 76 75 74 73 72 71 71 71 71 71 71 71 71 72 72 72 73 73 73 74 75 76 78 81 84 86 87
84 84 83 84 84 84 83 83 82 81 79 78 77 76 76 76 76 75 73 71 70 70 70 69 70 70 70 71 71 72 72 72 72 72 73 73 74 76 78 80 82 85
83 83 83 83 83 84 84 84 84 83 81 79 77 76 76 76 75 74 72 71 70 69 68 68 69 69 69 70 70 71 72 72 71 71 72 73 74 76 77 78 79 81
79 78 78 78 78 78 79 79 79 79 78 77 76 74 74 73 72 71 70 69 68 68 67 67 67 68 68 69 69 70 71 71 70 70 72 73 75 76 77 78 78 79
71 71 70 70 71 71 71 72 72 72 71 71 70 69 69 68 67 67 66 66 66 65 65 65 66 66 66 67 67 68 69 69 69 69 71 73 75 76 77 78 78 79
64 64 63 63 63 63 63 64 65 65 64 64 63 63 62 62 62 62 62 62 62 62 62 63 63 64 64 65 65 66 67 67 68 69 70 72 73 74 75 75 76 77
60 60 58 58 57 57 57 57 58 58 58 58 57 57 57 57 57 57 58 58 59 59 59 60 60 61 61 62 63 63 64 64 65 66 66 67 68 69 69 69 69 70
56 56 55 54 53 53 53 53 52 52 52 52 52 52 52 53 53 53 54 55 55 56 56 57 57 58 58 59 59 60 59 59 60 60 60 60 60 59 59 59 60 60
52 51 50 50 49 49 50 50 49 48 48 48 48 48 49 49 50 51 51 52 52 53 53 54 54 54 55 55 55 54 54 53 53 52 52 52 51 51 52 53 55 55
48 47 46 46 45 45 45 46 45 45 45 45 45 45 46 46 47 48 49 49 50 50 51 51 51 51 50 50 50 50 49 48 48 48 47 48 48 49 51 52 53 54
44 43 43 42 42 41 41 41 41 42 42 42 42 43 43 44 45 46 47 47 47 47 47 47 47 46 46 46 46 46 46 45 45 45 46 47 49 49 50 51 52 53
Wind_Direction
265 265 265 266 265 264 262 260 258 257 257 257 256 256 256 256 256 257 258 258 259 260 261 261 261 261 261 260 260 260 260 260 261 261 261 262 262 262 262 262 261 261
263 262 262 263 264 265 264 263 261 259 258 257 257 257 257 256 256 256 257 258 259 259 260 261 261 261 261 261 260 260 260 260 260 260 260 260 261 261 261 261 261 261
264 262 261 261 262 263 264 265 264 262 260 258 258 258 258 258 258 257 258 258 258 259 259 260 260 261 261 260 261 261 260 260 260 260 260 260 260 260 260 260 260 260
265 264 262 261 261 261 262 263 264 265 264 262 260 259 259 259 259 259 259 259 259 259 258 258 259 259 260 260 260 260 260 260 260 260 261 260 260 260 260 260 260 260
269 266 264 263 262 261 262 262 264 265 265 264 263 261 260 260 259 259 259 259 259 259 258 258 258 258 258 258 258 258 259 259 260 260 260 260 260 260 260 260 260 259
272 270 267 265 264 262 261 261 263 264 265 265 263 262 261 260 259 259 258 258 258 258 257 257 257 257 257 257 257 258 258 258 259 259 260 260 260 260 260 260 260 260
274 272 270 268 266 264 263 261 261 262 264 264 264 263 262 261 260 259 259 258 257 257 257 257 257 257 258 258 258 259 259 259 259 259 260 260 260 261 261 260 260 260
276 275 273 271 269 267 265 263 262 261 262 263 264 264 264 263 262 261 260 259 258 258 257 257 258 258 259 259 259 260 260 260 260 260 260 260 260 261 261 261 262 262
276 275 274 273 272 271 269 267 265 263 262 263 264 265 266 266 265 264 263 262 261 260 259 258 258 258 259 259 259 259 260 260 260 261 261 261 261 261 262 262 262 262
274 274 273 273 272 272 271 270 269 267 266 264 264 265 266 267 267 267 266 265 264 263 263 262 261 260 259 259 259 259 259 259 260 260 260 261 261 261 262 262 263 263
274 273 273 273 272 272 271 271 270 269 269 268 266 266 266 267 267 268 268 268 268 267 267 266 265 264 263 262 261 260 260 260 260 260 260 260 261 261 262 263 263 263
275 274 273 273 272 272 271 271 270 270 269 269 268 268 267 267 267 268 268 269 269 269 269 269 268 268 267 266 265 263 262 262 261 261 261 261 261 261 262 262 263 263
275 274 273 273 272 272 271 271 270 269 269 269 268 268 268 268 267 267 267 268 268 269 269 269 269 269 269 269 268 267 266 264 263 263 263 263 262 262 262 262 262 262
274 274 273 272 271 271 271 270 270 269 269 268 268 268 268 268 267 267 267 267 267 268 268 269 269 269 269 269 269 269 268 267 266 264 263 263 263 263 263 263 263 263
274 274 273 272 271 271 270 270 270 269 269 268 268 267 267 267 267 266 266 266 266 267 267 268 268 269 269 270 269 269 269 268 268 267 266 264 263 262 262 262 262 262
276 275 274 273 272 271 271 270 270 270 269 268 267 267 266 266 266 266 265 265 265 265 266 267 267 268 269 269 269 269 269 269 268 268 268 267 266 265 263 262 261 260
276 275 274 274 273 272 271 271 270 270 270 269 267 266 265 265 265 265 264 264 264 265 265 266 267 267 268 268 269 269 269 268 269 269 269 268 268 267 266 264 263 262
276 275 274 273 272 272 271 270 269 269 269 268 267 265 264 264 264 264 263 263 264 264 265 266 266 267 267 268 268 268 269 269 269 269 269 269 268 267 266 266 266 265
276 275 274 272 271 270 269 268 268 267 266 265 265 264 263 262 262 263 263 263 263 264 264 265 266 266 267 267 268 268 269 269 269 269 269 268 268 267 267 267 267 267
278 276 274 272 271 269 267 266 266 265 264 264 263 262 262 261 261 261 262 262 262 263 264 264 265 266 266 267 268 269 269 270 270 269 269 269 268 268 268 267 267 266
279 277 275 273 271 269 267 265 264 263 263 263 262 262 261 261 260 260 261 261 262 262 263 264 265 266 267 267 268 269 270 270 270 269 269 269 269 268 268 267 267 266
280 277 275 273 271 269 267 264 263 262 262 261 261 261 260 260 260 260 260 260 261 262 263 264 265 266 267 268 269 269 270 271 271 270 270 270 269 269 268 268 267 266
280 277 275 272 271 269 266 264 262 262 261 261 260 260 260 260 259 260 260 260 261 262 263 264 265 266 267 268 269 270 271 271 271 271 271 270 270 270 269 268 267 267
281 278 274 272 270 268 265 263 262 262 261 260 260 259 259 259 259 259 260 260 261 262 263 264 265 266 267 268 269 270 271 271 271 272 271 271 271 271 270 269 269 269
281 278 275 272 270 267 265 263 262 261 261 260 259 259 259 259 259 259 259 259 260 261 262 264 265 266 267 268 269 269 270 270 271 271 272 272 271 270 269 269 270 270
281 278 275 272 269 266 263 262 261 260 260 260 259 259 259 259 259 259 259 259 260 261 262 263 265 265 266 267 269 270 270 270 270 271 272 271 270 269 269 270 270 270
Height
5526 5525 5524 5524 5523 5523 5523 5523 5522 5522 5521 5521 5521 5521 5521 5521 5521 5521 5521 5520 5521 5521 5521 5522 5522 5523 5523 5523 5523 5524 5524 5525 5525 5526 5526 5527 5528 5529 5529 5530 5530 5530
5515 5514 5513 5512 5511 5511 5510 5511 5511 5511 5510 5510 5510 5509 5509 5510 5510 5510 5510 5510 5510 5511 5511 5511 5511 5512 5512 5513 5513 5513 5514 5515 5515 5515 5516 5517 5518 5519 5520 5520 5520 5521
5503 5502 5501 5500 5500 5499 5498 5498 5498 5498 5499 5498 5498 5498 5498 5498 5498 5498 5499 5499 5499 5499 5500 5500 5500 5500 5501 5501 5502 5502 5503 5504 5504 5505 5505 5507 5507 5508 5509 5509 5509 5510
5490 5489 5488 5488 5487 5487 5486 5486 5485 5485 5485 5486 5486 5486 5486 5487 5487 5487 5487 5488 5488 5488 5488 5488 5488 5489 5489 5490 5490 5491 5492 5492 5493 5494 5494 5496 5497 5497 5498 5498 5499 5500
5478 5477 5476 5475 5475 5474 5474 5473 5473 5473 5472 5472 5473 5473 5474 5474 5474 5475 5475 5476 5476 5477 5477 5477 5477 5477 5477 5478 5478 5479 5480 5481 5482 5482 5483 5485 5485 5486 5487 5487 5488 5490
5467 5466 5465 5464 5463 5462 5462 5461 5460 5460 5460 5460 5460 5460 5461 5462 5462 5462 5463 5463 5464 5464 5464 5465 5465 5465 5465 5466 5466 5467 5468 5469 5470 5470 5471 5473 5473 5474 5475 5476 5477 5478
5456 5455 5453 5453 5452 5450 5450 5449 5448 5448 5447 5447 5447 5447 5448 5449 5449 5450 5450 5451 5451 5452 5452 5453 5453 5453 5453 5454 5455 5455 5456 5457 5458 5458 5460 5461 5461 5462 5463 5464 5466 5467
5444 5444 5442 5441 5440 5439 5439 5438 5437 5436 5435 5435 5434 5434 5435 5436 5436 5437 5438 5438 5439 5440 5440 5441 5442 5442 5442 5443 5443 5444 5444 5445 5446 5447 5448 5449 5450 5451 5452 5452 5453 5455
5433 5432 5430 5429 5428 5428 5427 5426 5426 5425 5424 5423 5422 5421 5421 5421 5422 5423 5424 5425 5426 5427 5428 5429 5430 5430 5431 5431 5431 5432 5433 5434 5434 5435 5436 5437 5438 5439 5440 5440 5441 5443
5421 5420 5418 5416 5415 5415 5414 5414 5414 5413 5413 5412 5412 5411 5410 5409 5409 5410 5410 5411 5412 5413 5414 5415 5416 5417 5418 5419 5419 5420 5421 5422 5423 5424 5424 5425 5426 5427 5428 5428 5429 5431
5408 5408 5406 5404 5403 5402 5402 5401 5401 5401 5401 5401 5401 5400 5400 5399 5398 5398 5398 5399 5399 5399 5400 5401 5402 5403 5404 5405 5406 5407 5408 5410 5411 5412 5412 5413 5414 5415 5416 5416 5417 5418
5395 5395 5394 5392 5390 5390 5389 5389 5389 5389 5389 5389 5389 5389 5389 5389 5388 5388 5387 5387 5387 5387 5388 5388 5389 5389 5389 5390 5392 5393 5395 5396 5397 5399 5399 5400 5401 5402 5403 5404 5405 5406
5380 5381 5381 5379 5378 5377 5377 5376 5376 5376 5376 5377 5377 5377 5377 5378 5378 5377 5377 5377 5376 5376 5376 5377 5377 5377 5377 5377 5378 5379 5380 5382 5383 5385 5386 5387 5388 5389 5390 5391 5392 5393
5367 5366 5367 5366 5365 5364 5364 5363 5363 5363 5363 5364 5364 5365 5365 5366 5366 5367 5367 5366 5366 5366 5366 5365 5366 5365 5365 5366 5367 5367 5367 5368 5370 5371 5373 5374 5375 5376 5377 5378 5379 5380
5354 5353 5352 5351 5351 5351 5350 5350 5350 5350 5350 5351 5352 5352 5353 5354 5354 5355 5356 5356 5355 5355 5355 5355 5355 5354 5354 5355 5355 5355 5356 5357 5358 5358 5360 5361 5362 5363 5364 5365 5365 5366
5340 5339 5337 5336 5335 5336 5336 5336 5336 5337 5337 5338 5339 5339 5340 5341 5342 5343 5344 5344 5344 5344 5344 5345 5344 5344 5344 5344 5344 5344 5344 5345 5346 5348 5348 5349 5350 5351 5351 5351 5351 5352
5324 5324 5323 5321 5320 5320 5321 5321 5322 5323 5324 5325 5325 5326 5328 5329 5330 5332 5332 5333 5333 5333 5333 5334 5334 5334 5334 5334 5333 5333 5333 5334 5336 5337 5337 5337 5338 5338 5336 5335 5336 5337
5308 5308 5307 5306 5305 5305 5305 5306 5307 5308 5309 5311 5312 5313 5315 5317 5318 5320 5321 5321 5321 5322 5322 5323 5323 5323 5323 5323 5323 5322 5322 5324 5327 5328 5327 5326 5325 5323 5322 5322 5322 5323
5293 5292 5292 5291 5290 5290 5291 5291 5292 5294 5295 5297 5298 5300 5302 5304 5306 5308 5309 5310 5310 5310 5312 5312 5312 5312 5313 5313 5313 5312 5312 5314 5317 5317 5316 5313 5311 5310 5310 5311 5311 5311
5278 5277 5277 5276 5276 5276 5277 5278 5279 5281 5283 5284 5286 5288 5290 5292 5294 5296 5298 5298 5299 5299 5300 5301 5301 5302 5302 5302 5303 5302 5302 5304 5307 5306 5303 5301 5300 5299 5299 5299 5300 5299
5265 5264 5264 5263 5263 5264 5265 5266 5267 5269 5271 5273 5275 5277 5279 5281 5283 5285 5286 5287 5288 5289 5289 5290 5291 5291 5292 5293 5293 5293 5293 5294 5295 5294 5292 5290 5288 5288 5288 5288 5287 5286
5253 5253 5252 5252 5252 5252 5254 5255 5257 5259 5261 5263 5265 5267 5269 5271 5273 5274 5276 5276 5277 5278 5279 5279 5280 5281 5282 5283 5283 5283 5283 5283 5283 5283 5282 5279 5277 5277 5278 5276 5274 5273
5242 5242 5242 5242 5242 5242 5243 5245 5247 5249 5251 5253 5255 5258 5259 5262 5263 5264 5266 5266 5267 5268 5269 5270 5271 5272 5272 5273 5273 5273 5274 5273 5272 5272 5271 5270 5268 5268 5267 5264 5262 5262
5233 5232 5232 5232 5233 5233 5234 5236 5238 5240 5242 5244 5246 5248 5250 5252 5254 5255 5256 5257 5258 5259 5260 5261 5262 5263 5263 5263 5263 5263 5264 5264 5263 5262 5262 5261 5260 5259 5257 5254 5254 5253
5224 5223 5223 5223 5224 5225 5226 5228 5230 5232 5234 5236 5238 5240 5242 5243 5245 5247 5248 5248 5249 5250 5251 5252 5254 5254 5254 5254 5254 5254 5255 5256 5255 5254 5254 5253 5252 5250 5248 5247 5247 5246
5216 5215 5215 5216 5216 5218 5219 5221 5223 5224 5226 5228 5230 5232 5233 5235 5237 5238 5239 5240 5241 5242 5243 5245 5245 5246 5246 5246 5246 5246 5247 5247 5247 5248 5247 5244 5243 5242 5241 5240 5239 5239